Hourly Data Report for July 03, 2003

SHERBROOKE A
QUEBEC

45°26'00.000" N
71°41'00.000" W
241.40 m
7028124
71610
YSC

Download Data

Hourly Data (July 2003)
Hourly Data Report for July 3, 2003
TIME
LST
Temp Definition
°C
Dew Point Definition
°C
Rel Hum Definition
%
Precip. Amount Definition
mm

Wind Dir Definition
10's deg

Wind Spd Definition
km/h
Visibility Definition
km
Stn Press Definition
kPa
Hmdx Definition


Wind Chill Definition


Weather Definition


00:00 16.3 14.8 91     0 15.0 98.13      
01:00 17.3 14.5 84   19 6 15.0 98.14      
02:00 16.8 14.5 86   5 7 15.0 98.20      
03:00 15.4 13.9 91   3 6 15.0 98.18      
04:00 13.3 12.6 96     0 9.7 98.16      
05:00 14.3 13.8 97   4 4 8.0 98.19      
06:00 17.2 14.7 85     0 15.0 98.18      
07:00 20.2 15.6 75   23 6 24.1 98.19 25   Mostly Cloudy
08:00 22.8 17.0 70   23 9 24.1 98.17 28   Mostly Cloudy
09:00 23.7 16.3 63   23 15 19.3 98.18 29   Cloudy
10:00 25.9 18.0 62   22 13 19.3 98.16 32   Mostly Cloudy
11:00 26.3 17.2 57   24 20 19.3 98.14 32   Mostly Cloudy
12:00 27.5 17.5 54   23 13 19.3 98.12 33   Cloudy
13:00 26.4 18.0 60   26 19 19.3 98.09 32   Mostly Cloudy
14:00 27.4 17.3 54   23 15 19.3 98.05 33   Mostly Cloudy
15:00 27.0 17.2 55   25 9 19.3 98.01 32   Mainly Clear
16:00 27.9 16.4 50   23 11 19.3 97.96 33   Cloudy
17:00 27.0 16.9 54   22 11 12.9 97.95 32    
18:00 25.5 17.3 60   22 6 11.3 97.96 31    
19:00 24.1 17.6 67   21 6 9.7 97.97 30    
20:00 23.3 17.6 70   22 6 9.7 97.99 29    
21:00 22.9 17.9 73   21 7 8.0 98.03 29    
22:00 22.5 18.1 76   23 4 8.0 98.03 29    
23:00 21.2 18.3 84   24 4 6.4 98.04 27   Rain

Notes on Data Quality.

Legend

  • E = Estimated
  • M = Missing
  • NA = Not Available*
  • [empty] = Indicates an unobserved value
Date modified: